Time,TemperatureF,DewpointF,PressureIn,WindDirection,WindDirectionDegrees,WindSpeedMPH,WindSpeedGustMPH,Humidity,HourlyPrecipIn,Conditions,Clouds,dailyrainin,SoftwareType,DateUTC
2013-01-24 00:00:00,53.1,42.4,30.27,East,90,0.9,3.1,67,0.00,,---,0.00,VWS V14.00,2013-01-24 05:00:00,
2013-01-24 00:02:00,53.1,42.4,30.27,ENE,68,0.0,0.0,67,0.00,,---,0.00,VWS V14.00,2013-01-24 05:02:00,
2013-01-24 00:03:00,53.1,42.4,30.27,ENE,68,0.0,0.0,67,0.00,,---,0.00,VWS V14.00,2013-01-24 05:03:00,
2013-01-24 00:04:00,53.1,42.4,30.27,ENE,68,0.0,0.0,67,0.00,,---,0.00,VWS V14.00,2013-01-24 05:04:00,
2013-01-24 00:10:00,52.9,43.0,30.27,ENE,68,2.2,2.2,69,0.00,,---,0.00,VWS V14.00,2013-01-24 05:10:00,
2013-01-24 00:15:00,52.9,43.0,30.27,ENE,68,2.0,2.0,69,0.00,,---,0.00,VWS V14.00,2013-01-24 05:15:00,
2013-01-24 00:21:00,52.9,44.1,30.27,NNE,22,3.4,3.4,72,0.00,,---,0.00,VWS V14.00,2013-01-24 05:21:00,
2013-01-24 00:27:00,53.1,43.9,30.27,NNE,22,2.5,2.9,71,0.00,,---,0.00,VWS V14.00,2013-01-24 05:27:00,
2013-01-24 00:32:00,53.2,43.7,30.27,NE,45,1.6,2.2,70,0.00,,---,0.00,VWS V14.00,2013-01-24 05:32:00,
2013-01-24 00:37:00,53.2,43.3,30.27,NE,45,1.3,2.2,69,0.00,,---,0.00,VWS V14.00,2013-01-24 05:37:00,
2013-01-24 00:43:00,53.4,43.1,30.27,NE,45,2.2,2.7,68,0.00,,---,0.00,VWS V14.00,2013-01-24 05:43:00,
2013-01-24 00:48:00,53.4,43.1,30.27,ENE,68,0.0,1.3,68,0.00,,---,0.00,VWS V14.00,2013-01-24 05:48:00,
2013-01-24 00:54:00,53.2,43.0,30.24,NNE,22,0.0,2.5,68,0.00,,---,0.00,VWS V14.00,2013-01-24 05:54:00,
2013-01-24 01:01:00,53.1,42.8,30.24,ENE,68,0.0,0.0,68,0.00,,---,0.00,VWS V14.00,2013-01-24 06:01:00,
2013-01-24 01:06:00,52.9,43.4,30.24,NE,45,1.6,1.6,70,0.00,,---,0.00,VWS V14.00,2013-01-24 06:06:00,
2013-01-24 01:11:00,52.7,43.2,30.24,East,90,0.0,0.0,70,0.00,,---,0.00,VWS V14.00,2013-01-24 06:11:00,
2013-01-24 01:16:00,52.3,42.9,30.24,ENE,68,0.0,0.0,70,0.00,,---,0.00,VWS V14.00,2013-01-24 06:16:00,
2013-01-24 01:21:00,52.3,43.2,30.24,ENE,68,0.0,0.0,71,0.00,,---,0.00,VWS V14.00,2013-01-24 06:21:00,
2013-01-24 01:26:00,52.2,43.8,30.24,ENE,68,1.6,1.6,73,0.00,,---,0.00,VWS V14.00,2013-01-24 06:26:00,
2013-01-24 01:31:00,52.3,44.3,30.24,NE,45,3.4,3.4,74,0.00,,---,0.00,VWS V14.00,2013-01-24 06:31:00,
2013-01-24 01:36:00,53.1,46.7,30.24,East,90,2.9,2.9,79,0.00,,---,0.00,VWS V14.00,2013-01-24 06:36:00,
2013-01-24 01:41:00,53.2,46.2,30.24,ENE,68,3.6,3.6,77,0.00,,---,0.00,VWS V14.00,2013-01-24 06:41:00,
2013-01-24 01:46:00,53.4,47.1,30.24,NE,45,2.5,2.5,79,0.00,,---,0.00,VWS V14.00,2013-01-24 06:46:00,
2013-01-24 01:51:00,53.2,46.9,30.24,ENE,68,2.7,2.7,79,0.00,,---,0.00,VWS V14.00,2013-01-24 06:51:00,
2013-01-24 01:56:00,53.2,46.6,30.24,NNE,22,2.2,2.9,78,0.00,,---,0.00,VWS V14.00,2013-01-24 06:56:00,
2013-01-24 02:01:00,53.1,45.4,30.24,NNE,22,1.6,2.0,75,0.00,,---,0.00,VWS V14.00,2013-01-24 07:01:00,
2013-01-24 02:06:00,52.7,44.7,30.24,ENE,68,1.6,2.5,74,0.00,,---,0.00,VWS V14.00,2013-01-24 07:06:00,
2013-01-24 02:11:00,52.7,44.3,30.24,NNE,22,2.7,2.7,73,0.00,,---,0.00,VWS V14.00,2013-01-24 07:11:00,
2013-01-24 02:17:00,52.7,44.7,30.21,NNE,22,3.1,3.1,74,0.00,,---,0.00,VWS V14.00,2013-01-24 07:17:00,
2013-01-24 02:22:00,52.7,44.7,30.21,NNE,22,2.7,3.1,74,0.00,,---,0.00,VWS V14.00,2013-01-24 07:22:00,
2013-01-24 02:28:00,52.5,44.8,30.21,ENE,68,2.7,2.7,75,0.00,,---,0.00,VWS V14.00,2013-01-24 07:28:00,
2013-01-24 02:33:00,52.5,45.5,30.21,ENE,68,3.1,3.1,77,0.00,,---,0.00,VWS V14.00,2013-01-24 07:33:00,
2013-01-24 02:38:00,52.3,44.7,30.21,NNE,22,1.3,2.0,75,0.00,,---,0.00,VWS V14.00,2013-01-24 07:38:00,
2013-01-24 02:43:00,52.2,43.8,30.21,NE,45,0.0,0.0,73,0.00,,---,0.00,VWS V14.00,2013-01-24 07:43:00,
2013-01-24 02:48:00,51.8,43.4,30.21,ENE,68,2.0,2.0,73,0.00,,---,0.00,VWS V14.00,2013-01-24 07:48:00,
2013-01-24 02:53:00,51.6,43.3,30.21,ENE,68,1.1,1.3,73,0.00,,---,0.00,VWS V14.00,2013-01-24 07:53:00,
2013-01-24 02:59:00,51.6,42.9,30.21,ENE,68,0.9,0.9,72,0.00,,---,0.00,VWS V14.00,2013-01-24 07:59:00,
2013-01-24 03:04:00,51.8,43.4,30.21,ENE,68,2.2,2.5,73,0.00,,---,0.00,VWS V14.00,2013-01-24 08:04:00,
2013-01-24 03:09:00,52.2,44.5,30.21,ENE,68,2.0,2.0,75,0.00,,---,0.00,VWS V14.00,2013-01-24 08:09:00,
2013-01-24 03:15:00,52.2,43.8,30.21,ESE,112,1.6,3.1,73,0.00,,---,0.00,VWS V14.00,2013-01-24 08:15:00,
2013-01-24 03:20:00,52.2,43.8,30.21,SSW,202,0.0,0.0,73,0.00,,---,0.00,VWS V14.00,2013-01-24 08:20:00,
2013-01-24 03:25:00,52.2,44.1,30.21,NE,45,0.0,0.0,74,0.00,,---,0.00,VWS V14.00,2013-01-24 08:25:00,
2013-01-24 03:30:00,52.2,44.1,30.21,NNW,338,2.0,2.0,74,0.00,,---,0.00,VWS V14.00,2013-01-24 08:30:00,
2013-01-24 03:35:00,52.3,44.7,30.21,NNW,338,1.6,1.6,75,0.00,,---,0.00,VWS V14.00,2013-01-24 08:35:00,
2013-01-24 03:40:00,52.3,44.7,30.21,NNW,338,2.5,2.5,75,0.00,,---,0.00,VWS V14.00,2013-01-24 08:40:00,
2013-01-24 03:45:00,52.0,44.3,30.21,NNE,22,2.5,2.5,75,0.00,,---,0.00,VWS V14.00,2013-01-24 08:45:00,
2013-01-24 03:51:00,51.6,44.0,30.21,NNE,22,3.1,3.1,75,0.00,,---,0.00,VWS V14.00,2013-01-24 08:51:00,
2013-01-24 03:56:00,51.4,44.1,30.21,NNE,22,2.2,2.2,76,0.00,,---,0.00,VWS V14.00,2013-01-24 08:56:00,
2013-01-24 04:02:00,51.3,44.0,30.21,ENE,68,1.6,2.5,76,0.00,,---,0.00,VWS V14.00,2013-01-24 09:02:00,
2013-01-24 04:07:00,51.3,44.0,30.21,NNE,22,2.9,2.9,76,0.00,,---,0.00,VWS V14.00,2013-01-24 09:07:00,
2013-01-24 04:12:00,51.1,44.1,30.21,NE,45,2.2,2.2,77,0.00,,---,0.00,VWS V14.00,2013-01-24 09:12:00,
2013-01-24 04:17:00,51.1,45.5,30.21,ENE,68,3.1,4.0,81,0.00,,---,0.00,VWS V14.00,2013-01-24 09:17:00,
2013-01-24 04:22:00,51.3,46.3,30.21,NNE,22,2.9,3.6,83,0.00,,---,0.00,VWS V14.00,2013-01-24 09:22:00,
2013-01-24 04:27:00,51.4,46.5,30.21,ENE,68,3.1,3.1,83,0.00,,---,0.00,VWS V14.00,2013-01-24 09:27:00,
2013-01-24 04:32:00,51.6,45.7,30.21,NNE,22,1.6,2.5,80,0.00,,---,0.00,VWS V14.00,2013-01-24 09:32:00,
2013-01-24 04:38:00,51.6,45.0,30.21,North,0,2.0,2.2,78,0.00,,---,0.00,VWS V14.00,2013-01-24 09:38:00,
2013-01-24 04:44:00,51.6,44.7,30.21,NE,45,1.6,1.6,77,0.00,,---,0.00,VWS V14.00,2013-01-24 09:44:00,
2013-01-24 04:49:00,51.8,45.2,30.21,NNW,338,3.4,3.4,78,0.00,,---,0.00,VWS V14.00,2013-01-24 09:49:00,
2013-01-24 04:54:00,52.2,46.8,30.21,NNW,338,3.6,3.6,82,0.00,,---,0.00,VWS V14.00,2013-01-24 09:54:00,
2013-01-24 05:00:00,52.2,46.8,30.21,NNE,22,2.7,3.4,82,0.00,,---,0.00,VWS V14.00,2013-01-24 10:00:00,
2013-01-24 05:05:00,52.0,46.3,30.21,ENE,68,2.0,2.5,81,0.00,,---,0.00,VWS V14.00,2013-01-24 10:05:00,
2013-01-24 05:10:00,52.0,46.3,30.21,NNE,22,3.6,3.6,81,0.00,,---,0.00,VWS V14.00,2013-01-24 10:10:00,
2013-01-24 05:15:00,52.2,46.8,30.21,NE,45,3.8,3.8,82,0.00,,---,0.00,VWS V14.00,2013-01-24 10:15:00,
2013-01-24 05:20:00,52.0,46.3,30.21,NNE,22,3.6,4.7,81,0.00,,---,0.00,VWS V14.00,2013-01-24 10:20:00,
2013-01-24 05:25:00,52.3,47.0,30.21,North,0,3.6,3.8,82,0.00,,---,0.00,VWS V14.00,2013-01-24 10:25:00,
2013-01-24 05:30:00,52.2,45.2,30.24,North,0,2.0,2.0,77,0.00,,---,0.00,VWS V14.00,2013-01-24 10:30:00,
2013-01-24 05:35:00,52.2,44.5,30.24,NNE,22,0.0,0.0,75,0.00,,---,0.00,VWS V14.00,2013-01-24 10:35:00,
2013-01-24 05:40:00,51.8,43.8,30.24,NNW,338,2.2,2.2,74,0.00,,---,0.00,VWS V14.00,2013-01-24 10:40:00,
2013-01-24 05:45:00,51.8,43.8,30.24,North,0,3.6,3.6,74,0.00,,---,0.00,VWS V14.00,2013-01-24 10:45:00,
2013-01-24 05:50:00,51.8,43.8,30.24,North,0,2.9,2.9,74,0.00,,---,0.00,VWS V14.00,2013-01-24 10:50:00,
2013-01-24 05:56:00,52.0,44.0,30.24,NNW,338,3.1,3.1,74,0.00,,---,0.00,VWS V14.00,2013-01-24 10:56:00,
2013-01-24 06:02:00,51.8,43.4,30.24,NNE,22,3.1,3.1,73,0.00,,---,0.00,VWS V14.00,2013-01-24 11:02:00,
2013-01-24 06:07:00,51.6,43.3,30.24,North,0,1.6,2.7,73,0.00,,---,0.00,VWS V14.00,2013-01-24 11:07:00,
2013-01-24 06:12:00,51.4,43.1,30.24,NE,45,0.0,1.3,73,0.00,,---,0.00,VWS V14.00,2013-01-24 11:12:00,
2013-01-24 06:17:00,51.1,42.7,30.24,NNE,22,2.7,2.7,73,0.00,,---,0.00,VWS V14.00,2013-01-24 11:17:00,
2013-01-24 06:22:00,50.9,42.6,30.24,NNE,22,2.5,2.5,73,0.00,,---,0.00,VWS V14.00,2013-01-24 11:22:00,
2013-01-24 06:27:00,50.9,42.2,30.24,NNE,22,2.5,2.5,72,0.00,,---,0.00,VWS V14.00,2013-01-24 11:27:00,
2013-01-24 06:32:00,50.9,41.5,30.24,NNE,22,2.0,2.5,70,0.00,,---,0.00,VWS V14.00,2013-01-24 11:32:00,
2013-01-24 06:38:00,50.9,41.5,30.24,NNW,338,1.3,2.0,70,0.00,,---,0.00,VWS V14.00,2013-01-24 11:38:00,
2013-01-24 06:43:00,51.1,41.7,30.24,North,0,2.0,2.5,70,0.00,,---,0.00,VWS V14.00,2013-01-24 11:43:00,
2013-01-24 06:49:00,51.1,42.0,30.24,NNW,338,0.9,2.5,71,0.00,,---,0.00,VWS V14.00,2013-01-24 11:49:00,
2013-01-24 06:54:00,51.1,41.7,30.24,North,0,2.7,3.4,70,0.00,,---,0.00,VWS V14.00,2013-01-24 11:54:00,
2013-01-24 07:00:00,51.1,42.0,30.24,NE,45,3.6,3.6,71,0.00,,---,0.00,VWS V14.00,2013-01-24 12:00:00,
2013-01-24 07:05:00,51.3,43.3,30.24,NNE,22,2.9,2.9,74,0.00,,---,0.00,VWS V14.00,2013-01-24 12:05:00,
2013-01-24 07:10:00,51.4,43.8,30.24,NNE,22,4.3,4.3,75,0.00,,---,0.00,VWS V14.00,2013-01-24 12:10:00,
2013-01-24 07:15:00,51.6,44.3,30.24,NNW,338,3.6,4.9,76,0.00,,---,0.00,VWS V14.00,2013-01-24 12:15:00,
2013-01-24 07:21:00,51.6,44.3,30.24,NNE,22,1.6,2.7,76,0.00,,---,0.00,VWS V14.00,2013-01-24 12:21:00,
2013-01-24 07:26:00,51.8,44.5,30.24,NE,45,2.5,2.5,76,0.00,,---,0.00,VWS V14.00,2013-01-24 12:26:00,
2013-01-24 07:31:00,51.8,44.8,30.27,NNW,338,2.2,2.9,77,0.00,,---,0.00,VWS V14.00,2013-01-24 12:31:00,
2013-01-24 07:36:00,52.0,45.7,30.27,North,0,2.9,3.1,79,0.00,,---,0.00,VWS V14.00,2013-01-24 12:36:00,
2013-01-24 07:41:00,52.2,45.8,30.27,North,0,2.2,3.1,79,0.00,,---,0.00,VWS V14.00,2013-01-24 12:41:00,
2013-01-24 07:47:00,52.2,45.2,30.27,NNE,22,4.0,4.0,77,0.00,,---,0.00,VWS V14.00,2013-01-24 12:47:00,
2013-01-24 07:52:00,52.5,46.2,30.27,ENE,68,2.5,2.5,79,0.00,,---,0.00,VWS V14.00,2013-01-24 12:52:00,
2013-01-24 07:57:00,52.7,46.4,30.27,North,0,2.7,2.7,79,0.00,,---,0.00,VWS V14.00,2013-01-24 12:57:00,
2013-01-24 08:02:00,53.1,46.7,30.27,NNE,22,2.0,2.5,79,0.00,,---,0.00,VWS V14.00,2013-01-24 13:02:00,
2013-01-24 08:07:00,53.2,47.6,30.27,NE,45,2.5,4.9,81,0.00,,---,0.00,VWS V14.00,2013-01-24 13:07:00,
2013-01-24 08:13:00,53.6,47.6,30.27,NNE,22,2.7,3.6,80,0.00,,---,0.00,VWS V14.00,2013-01-24 13:13:00,
2013-01-24 08:18:00,54.1,48.8,30.27,North,0,2.9,4.3,82,0.00,,---,0.00,VWS V14.00,2013-01-24 13:18:00,
2013-01-24 08:24:00,54.5,49.1,30.27,NE,45,2.0,4.7,82,0.00,,---,0.00,VWS V14.00,2013-01-24 13:24:00,
2013-01-24 08:29:00,55.0,49.7,30.27,North,0,3.4,3.4,82,0.00,,---,0.00,VWS V14.00,2013-01-24 13:29:00,
2013-01-24 08:34:00,55.4,49.7,30.27,North,0,3.4,3.4,81,0.00,,---,0.00,VWS V14.00,2013-01-24 13:34:00,
2013-01-24 08:40:00,55.8,50.0,30.27,ENE,68,3.4,4.0,81,0.00,,---,0.00,VWS V14.00,2013-01-24 13:40:00,
2013-01-24 08:45:00,55.9,50.2,30.27,NNE,22,3.8,4.9,81,0.00,,---,0.00,VWS V14.00,2013-01-24 13:45:00,
2013-01-24 08:50:00,56.3,50.2,30.27,NNW,338,4.0,4.0,80,0.00,,---,0.00,VWS V14.00,2013-01-24 13:50:00,
2013-01-24 08:55:00,56.7,50.2,30.27,NW,315,1.6,2.5,79,0.00,,---,0.00,VWS V14.00,2013-01-24 13:55:00,
2013-01-24 09:01:00,57.0,50.2,30.27,NE,45,2.5,3.1,78,0.00,,---,0.00,VWS V14.00,2013-01-24 14:01:00,
2013-01-24 09:06:00,57.7,50.6,30.27,NNW,338,5.8,5.8,77,0.00,,---,0.00,VWS V14.00,2013-01-24 14:06:00,
2013-01-24 09:11:00,58.1,50.6,30.27,North,0,2.5,3.6,76,0.00,,---,0.00,VWS V14.00,2013-01-24 14:11:00,
2013-01-24 09:17:00,58.8,50.6,30.27,NNE,22,6.0,6.0,74,0.00,,---,0.00,VWS V14.00,2013-01-24 14:17:00,
2013-01-24 09:22:00,59.2,50.5,30.27,NNW,338,2.7,5.8,73,0.00,,---,0.00,VWS V14.00,2013-01-24 14:22:00,
2013-01-24 09:27:00,59.5,50.5,30.27,NNE,22,5.6,5.6,72,0.00,,---,0.00,VWS V14.00,2013-01-24 14:27:00,
2013-01-24 09:33:00,60.1,50.3,30.27,North,0,3.4,3.4,70,0.00,,---,0.00,VWS V14.00,2013-01-24 14:33:00,
2013-01-24 09:39:00,60.6,49.6,30.27,NNW,338,3.8,6.3,67,0.00,,---,0.00,VWS V14.00,2013-01-24 14:39:00,
2013-01-24 09:44:00,61.0,49.5,30.27,NNE,22,4.9,4.9,66,0.00,,---,0.00,VWS V14.00,2013-01-24 14:44:00,
2013-01-24 09:49:00,61.7,49.0,30.27,NNW,338,3.1,4.9,63,0.00,,---,0.00,VWS V14.00,2013-01-24 14:49:00,
2013-01-24 09:54:00,62.1,49.8,30.27,North,0,4.7,4.7,64,0.00,,---,0.00,VWS V14.00,2013-01-24 14:54:00,
2013-01-24 10:00:00,62.2,49.1,30.27,NNW,338,0.0,3.6,62,0.00,,---,0.00,VWS V14.00,2013-01-24 15:00:00,
2013-01-24 10:05:00,63.0,48.0,30.30,NNE,22,3.4,3.6,58,0.00,,---,0.00,VWS V14.00,2013-01-24 15:05:00,
2013-01-24 10:10:00,63.3,48.8,30.30,NNW,338,4.7,7.6,59,0.00,,---,0.00,VWS V14.00,2013-01-24 15:10:00,
2013-01-24 10:15:00,63.7,48.6,30.30,NNE,22,4.3,5.6,58,0.00,,---,0.00,VWS V14.00,2013-01-24 15:15:00,
2013-01-24 10:20:00,64.0,47.1,30.30,NNW,338,6.0,6.0,54,0.00,,---,0.00,VWS V14.00,2013-01-24 15:20:00,
2013-01-24 10:26:00,64.4,46.4,30.30,NNW,338,3.8,4.0,52,0.00,,---,0.00,VWS V14.00,2013-01-24 15:26:00,
2013-01-24 10:31:00,64.9,46.4,30.30,NNW,338,2.9,5.6,51,0.00,,---,0.00,VWS V14.00,2013-01-24 15:31:00,
2013-01-24 10:36:00,65.5,45.8,30.30,NNW,338,2.7,5.6,49,0.00,,---,0.00,VWS V14.00,2013-01-24 15:36:00,
2013-01-24 10:41:00,65.7,44.3,30.30,NNE,22,5.8,5.8,46,0.00,,---,0.00,VWS V14.00,2013-01-24 15:41:00,
2013-01-24 10:46:00,66.0,44.1,30.27,NNW,338,5.4,5.4,45,0.00,,---,0.00,VWS V14.00,2013-01-24 15:46:00,
2013-01-24 10:51:00,66.6,44.6,30.27,NNW,338,3.6,5.6,45,0.00,,---,0.00,VWS V14.00,2013-01-24 15:51:00,
2013-01-24 10:57:00,66.9,43.7,30.27,NNW,338,3.8,5.4,43,0.00,,---,0.00,VWS V14.00,2013-01-24 15:57:00,
2013-01-24 11:03:00,67.3,44.0,30.30,NNW,338,3.1,3.1,43,0.00,,---,0.00,VWS V14.00,2013-01-24 16:03:00,
2013-01-24 11:08:00,67.6,44.4,30.30,NNW,338,3.4,3.4,43,0.00,,---,0.00,VWS V14.00,2013-01-24 16:08:00,
2013-01-24 11:14:00,67.6,44.4,30.30,NNW,338,1.6,2.7,43,0.00,,---,0.00,VWS V14.00,2013-01-24 16:14:00,
2013-01-24 11:19:00,68.2,44.2,30.27,WNW,292,3.8,3.8,42,0.00,,---,0.00,VWS V14.00,2013-01-24 16:19:00,
2013-01-24 11:24:00,68.4,43.1,30.27,NNW,338,4.7,4.7,40,0.00,,---,0.00,VWS V14.00,2013-01-24 16:24:00,
2013-01-24 11:30:00,68.7,44.1,30.27,NNW,338,2.0,3.4,41,0.00,,---,0.00,VWS V14.00,2013-01-24 16:30:00,
2013-01-24 11:35:00,69.1,44.4,30.27,NNE,22,3.6,3.6,41,0.00,,---,0.00,VWS V14.00,2013-01-24 16:35:00,
2013-01-24 11:41:00,70.0,44.6,30.27,NNE,22,1.3,2.5,40,0.00,,---,0.00,VWS V14.00,2013-01-24 16:41:00,
2013-01-24 11:46:00,70.2,43.4,30.27,NW,315,6.0,6.0,38,0.00,,---,0.00,VWS V14.00,2013-01-24 16:46:00,
2013-01-24 11:51:00,70.3,44.2,30.27,WNW,292,5.6,5.6,39,0.00,,---,0.00,VWS V14.00,2013-01-24 16:51:00,
2013-01-24 11:56:00,70.3,42.9,30.27,NNE,22,5.4,5.4,37,0.00,,---,0.00,VWS V14.00,2013-01-24 16:56:00,
2013-01-24 12:01:00,70.7,43.9,30.27,NNW,338,3.6,3.6,38,0.00,,---,0.00,VWS V14.00,2013-01-24 17:01:00,
2013-01-24 12:06:00,71.2,44.4,30.27,WNW,292,2.2,4.3,38,0.00,,---,0.00,VWS V14.00,2013-01-24 17:06:00,
2013-01-24 12:11:00,71.4,45.9,30.27,NNW,338,5.8,5.8,40,0.00,,---,0.00,VWS V14.00,2013-01-24 17:11:00,
2013-01-24 12:17:00,71.2,43.7,30.27,NW,315,5.4,5.8,37,0.00,,---,0.00,VWS V14.00,2013-01-24 17:17:00,
2013-01-24 12:22:00,71.4,45.9,30.27,NNW,338,5.4,5.4,40,0.00,,---,0.00,VWS V14.00,2013-01-24 17:22:00,
2013-01-24 12:28:00,71.6,44.7,30.27,NW,315,6.3,6.3,38,0.00,,---,0.00,VWS V14.00,2013-01-24 17:28:00,
2013-01-24 12:34:00,71.6,43.3,30.27,NNW,338,4.0,4.0,36,0.00,,---,0.00,VWS V14.00,2013-01-24 17:34:00,
2013-01-24 12:39:00,71.4,43.1,30.27,North,0,6.5,6.5,36,0.00,,---,0.00,VWS V14.00,2013-01-24 17:39:00,
2013-01-24 12:45:00,71.6,43.3,30.27,NNW,338,3.6,5.8,36,0.00,,---,0.00,VWS V14.00,2013-01-24 17:45:00,
2013-01-24 12:50:00,71.6,42.5,30.27,NW,315,5.6,5.6,35,0.00,,---,0.00,VWS V14.00,2013-01-24 17:50:00,
2013-01-24 12:55:00,71.4,43.1,30.27,NW,315,6.5,6.5,36,0.00,,---,0.00,VWS V14.00,2013-01-24 17:55:00,
2013-01-24 13:00:00,71.8,43.4,30.24,NNW,338,5.4,5.4,36,0.00,,---,0.00,VWS V14.00,2013-01-24 18:00:00,
2013-01-24 13:05:00,71.8,43.4,30.24,NNW,338,4.0,5.8,36,0.00,,---,0.00,VWS V14.00,2013-01-24 18:05:00,
2013-01-24 13:10:00,72.1,43.0,30.24,NW,315,4.9,5.4,35,0.00,,---,0.00,VWS V14.00,2013-01-24 18:10:00,
2013-01-24 13:15:00,71.8,42.7,30.24,NW,315,4.3,6.0,35,0.00,,---,0.00,VWS V14.00,2013-01-24 18:15:00,
2013-01-24 13:20:00,71.6,43.3,30.24,NNW,338,2.9,4.0,36,0.00,,---,0.00,VWS V14.00,2013-01-24 18:20:00,
2013-01-24 13:25:00,71.6,43.3,30.24,West,270,3.1,7.8,36,0.00,,---,0.00,VWS V14.00,2013-01-24 18:25:00,
2013-01-24 13:31:00,72.0,43.6,30.21,NNW,338,3.4,6.0,36,0.00,,---,0.00,VWS V14.00,2013-01-24 18:31:00,
2013-01-24 13:36:00,72.3,43.2,30.21,NNE,22,2.9,8.5,35,0.00,,---,0.00,VWS V14.00,2013-01-24 18:36:00,
2013-01-24 13:41:00,72.1,43.7,30.21,NNW,338,7.6,7.6,36,0.00,,---,0.00,VWS V14.00,2013-01-24 18:41:00,
2013-01-24 13:46:00,71.6,43.3,30.21,NNW,338,7.2,8.1,36,0.00,,---,0.00,VWS V14.00,2013-01-24 18:46:00,
2013-01-24 13:52:00,71.8,44.1,30.21,NNE,22,4.0,7.2,37,0.00,,---,0.00,VWS V14.00,2013-01-24 18:52:00,
2013-01-24 13:57:00,71.8,44.1,30.21,NNW,338,6.3,6.3,37,0.00,,---,0.00,VWS V14.00,2013-01-24 18:57:00,
2013-01-24 14:02:00,71.4,44.5,30.21,WNW,292,4.7,4.7,38,0.00,,---,0.00,VWS V14.00,2013-01-24 19:02:00,
2013-01-24 14:07:00,71.8,44.1,30.21,WNW,292,4.0,4.9,37,0.00,,---,0.00,VWS V14.00,2013-01-24 19:07:00,
2013-01-24 14:13:00,72.3,46.0,30.21,North,0,7.2,7.2,39,0.00,,---,0.00,VWS V14.00,2013-01-24 19:13:00,
2013-01-24 14:18:00,72.3,45.3,30.21,NNW,338,6.3,6.3,38,0.00,,---,0.00,VWS V14.00,2013-01-24 19:18:00,
2013-01-24 14:23:00,72.7,44.9,30.21,North,0,5.4,5.4,37,0.00,,---,0.00,VWS V14.00,2013-01-24 19:23:00,
2013-01-24 14:28:00,72.3,45.3,30.21,NNE,22,8.5,8.5,38,0.00,,---,0.00,VWS V14.00,2013-01-24 19:28:00,
2013-01-24 14:34:00,72.5,44.8,30.21,NNW,338,3.8,3.8,37,0.00,,---,0.00,VWS V14.00,2013-01-24 19:34:00,
2013-01-24 14:39:00,73.0,46.6,30.21,North,0,3.6,5.4,39,0.00,,---,0.00,VWS V14.00,2013-01-24 19:39:00,
2013-01-24 14:44:00,72.7,46.3,30.21,NNW,338,4.3,5.6,39,0.00,,---,0.00,VWS V14.00,2013-01-24 19:44:00,
2013-01-24 14:49:00,72.7,47.7,30.21,WNW,292,6.5,7.6,41,0.00,,---,0.00,VWS V14.00,2013-01-24 19:49:00,
2013-01-24 14:54:00,72.9,47.2,30.21,NNW,338,4.7,9.6,40,0.00,,---,0.00,VWS V14.00,2013-01-24 19:54:00,
2013-01-24 15:00:00,72.9,46.5,30.21,NW,315,3.1,8.1,39,0.00,,---,0.00,VWS V14.00,2013-01-24 20:00:00,
2013-01-24 15:05:00,73.4,47.6,30.21,NNW,338,6.5,6.5,40,0.00,,---,0.00,VWS V14.00,2013-01-24 20:05:00,
2013-01-24 15:10:00,73.0,48.0,30.21,NNE,22,6.0,6.0,41,0.00,,---,0.00,VWS V14.00,2013-01-24 20:10:00,
2013-01-24 15:15:00,72.5,48.1,30.21,NNW,338,5.6,5.6,42,0.00,,---,0.00,VWS V14.00,2013-01-24 20:15:00,
2013-01-24 15:21:00,72.0,47.6,30.21,NNW,338,5.6,6.9,42,0.00,,---,0.00,VWS V14.00,2013-01-24 20:21:00,
2013-01-24 15:26:00,72.0,48.3,30.21,North,0,3.4,3.4,43,0.00,,---,0.00,VWS V14.00,2013-01-24 20:26:00,
2013-01-24 15:31:00,72.5,48.1,30.21,NNW,338,7.4,7.4,42,0.00,,---,0.00,VWS V14.00,2013-01-24 20:31:00,
2013-01-24 15:36:00,72.0,48.3,30.21,NNE,22,2.5,5.4,43,0.00,,---,0.00,VWS V14.00,2013-01-24 20:36:00,
2013-01-24 15:41:00,72.3,48.6,30.21,NW,315,2.9,4.7,43,0.00,,---,0.00,VWS V14.00,2013-01-24 20:41:00,
2013-01-24 15:47:00,72.7,48.9,30.21,NNW,338,5.4,7.4,43,0.00,,---,0.00,VWS V14.00,2013-01-24 20:47:00,
2013-01-24 15:52:00,72.5,48.8,30.21,WNW,292,5.6,5.6,43,0.00,,---,0.00,VWS V14.00,2013-01-24 20:52:00,
2013-01-24 15:57:00,72.3,49.2,30.21,WNW,292,4.0,4.0,44,0.00,,---,0.00,VWS V14.00,2013-01-24 20:57:00,
2013-01-24 16:02:00,72.1,49.0,30.18,NNW,338,5.4,5.4,44,0.00,,---,0.00,VWS V14.00,2013-01-24 21:02:00,
2013-01-24 16:08:00,72.0,48.9,30.18,NNW,338,6.3,6.3,44,0.00,,---,0.00,VWS V14.00,2013-01-24 21:08:00,
2013-01-24 16:13:00,71.6,49.2,30.18,NNW,338,4.9,5.4,45,0.00,,---,0.00,VWS V14.00,2013-01-24 21:13:00,
2013-01-24 16:18:00,71.6,49.8,30.18,North,0,6.3,6.3,46,0.00,,---,0.00,VWS V14.00,2013-01-24 21:18:00,
2013-01-24 16:23:00,71.8,49.9,30.18,North,0,4.7,4.7,46,0.00,,---,0.00,VWS V14.00,2013-01-24 21:23:00,
2013-01-24 16:29:00,70.5,49.9,30.18,North,0,3.1,3.6,48,0.00,,---,0.00,VWS V14.00,2013-01-24 21:29:00,
2013-01-24 16:34:00,70.2,50.7,30.21,NNW,338,6.5,6.5,50,0.00,,---,0.00,VWS V14.00,2013-01-24 21:34:00,
2013-01-24 16:39:00,69.8,50.3,30.21,NNW,338,5.8,5.8,50,0.00,,---,0.00,VWS V14.00,2013-01-24 21:39:00,
2013-01-24 16:44:00,69.4,51.1,30.21,NW,315,5.8,6.3,52,0.00,,---,0.00,VWS V14.00,2013-01-24 21:44:00,
2013-01-24 16:49:00,68.5,50.8,30.21,NNW,338,4.3,5.4,53,0.00,,---,0.00,VWS V14.00,2013-01-24 21:49:00,
2013-01-24 16:54:00,68.0,51.7,30.21,NNW,338,4.3,4.3,56,0.00,,---,0.00,VWS V14.00,2013-01-24 21:54:00,
2013-01-24 17:00:00,68.0,51.7,30.21,NW,315,5.8,5.8,56,0.00,,---,0.00,VWS V14.00,2013-01-24 22:00:00,
2013-01-24 17:05:00,67.5,52.2,30.18,NNW,338,5.8,5.8,58,0.00,,---,0.00,VWS V14.00,2013-01-24 22:05:00,
2013-01-24 17:10:00,67.3,52.9,30.18,NNW,338,3.6,4.9,60,0.00,,---,0.00,VWS V14.00,2013-01-24 22:10:00,
2013-01-24 17:15:00,67.3,52.9,30.18,North,0,2.5,6.3,60,0.00,,---,0.00,VWS V14.00,2013-01-24 22:15:00,
2013-01-24 17:20:00,66.9,53.0,30.18,NNE,22,2.9,2.9,61,0.00,,---,0.00,VWS V14.00,2013-01-24 22:20:00,
2013-01-24 17:25:00,66.9,52.6,30.18,NNW,338,2.2,2.2,60,0.00,,---,0.00,VWS V14.00,2013-01-24 22:25:00,
2013-01-24 17:30:00,66.6,53.2,30.18,NW,315,4.3,4.3,62,0.00,,---,0.00,VWS V14.00,2013-01-24 22:30:00,
2013-01-24 17:35:00,66.2,52.8,30.18,North,0,4.5,6.5,62,0.00,,---,0.00,VWS V14.00,2013-01-24 22:35:00,
2013-01-24 17:40:00,66.2,52.8,30.18,NNW,338,4.0,4.3,62,0.00,,---,0.00,VWS V14.00,2013-01-24 22:40:00,
2013-01-24 17:46:00,65.8,53.3,30.21,North,0,4.3,4.3,64,0.00,,---,0.00,VWS V14.00,2013-01-24 22:46:00,
2013-01-24 17:51:00,65.7,53.6,30.21,NNW,338,3.1,3.1,65,0.00,,---,0.00,VWS V14.00,2013-01-24 22:51:00,
2013-01-24 17:56:00,65.5,53.0,30.21,NNE,22,3.1,3.1,64,0.00,,---,0.00,VWS V14.00,2013-01-24 22:56:00,
2013-01-24 18:01:00,65.3,53.2,30.21,NNW,338,2.9,3.4,65,0.00,,---,0.00,VWS V14.00,2013-01-24 23:01:00,
2013-01-24 18:07:00,65.1,52.7,30.21,NW,315,2.2,2.5,64,0.00,,---,0.00,VWS V14.00,2013-01-24 23:07:00,
2013-01-24 18:12:00,64.9,52.5,30.21,NNE,22,2.2,2.7,64,0.00,,---,0.00,VWS V14.00,2013-01-24 23:12:00,
2013-01-24 18:17:00,64.8,52.3,30.21,NNW,338,2.5,2.5,64,0.00,,---,0.00,VWS V14.00,2013-01-24 23:17:00,
2013-01-24 18:22:00,64.6,52.1,30.21,North,0,0.0,0.0,64,0.00,,---,0.00,VWS V14.00,2013-01-24 23:22:00,
2013-01-24 18:27:00,64.4,52.0,30.21,North,0,0.0,0.0,64,0.00,,---,0.00,VWS V14.00,2013-01-24 23:27:00,
2013-01-24 18:32:00,64.2,52.6,30.21,NNW,338,2.5,2.5,66,0.00,,---,0.00,VWS V14.00,2013-01-24 23:32:00,
2013-01-24 18:37:00,63.9,53.1,30.21,NNW,338,0.0,1.3,68,0.00,,---,0.00,VWS V14.00,2013-01-24 23:37:00,
2013-01-24 18:42:00,63.9,52.3,30.21,NNW,338,0.0,1.3,66,0.00,,---,0.00,VWS V14.00,2013-01-24 23:42:00,
2013-01-24 18:48:00,63.5,52.0,30.21,NNW,338,0.0,0.0,66,0.00,,---,0.00,VWS V14.00,2013-01-24 23:48:00,
2013-01-24 18:53:00,63.3,51.4,30.21,NNW,338,0.0,0.0,65,0.00,,---,0.00,VWS V14.00,2013-01-24 23:53:00,
2013-01-24 19:00:00,63.0,51.4,30.21,NNW,338,0.0,0.0,66,0.00,,---,0.00,VWS V14.00,2013-01-25 00:00:00,
2013-01-24 19:05:00,62.8,50.8,30.21,NNW,338,0.0,0.0,65,0.00,,---,0.00,VWS V14.00,2013-01-25 00:05:00,
2013-01-24 19:10:00,62.6,50.7,30.21,NNW,338,0.0,0.0,65,0.00,,---,0.00,VWS V14.00,2013-01-25 00:10:00,
2013-01-24 19:15:00,62.4,50.9,30.21,NNW,338,0.0,0.0,66,0.00,,---,0.00,VWS V14.00,2013-01-25 00:15:00,
2013-01-24 19:20:00,62.2,50.8,30.21,NNW,338,0.0,0.0,66,0.00,,---,0.00,VWS V14.00,2013-01-25 00:20:00,
2013-01-24 19:25:00,61.9,50.8,30.21,NNW,338,0.0,1.1,67,0.00,,---,0.00,VWS V14.00,2013-01-25 00:25:00,
2013-01-24 19:30:00,61.7,51.0,30.21,NNW,338,0.0,0.0,68,0.00,,---,0.00,VWS V14.00,2013-01-25 00:30:00,
2013-01-24 19:35:00,61.5,50.9,30.24,NNW,338,0.0,0.0,68,0.00,,---,0.00,VWS V14.00,2013-01-25 00:35:00,
2013-01-24 19:40:00,61.3,50.3,30.24,NNW,338,0.0,0.0,67,0.00,,---,0.00,VWS V14.00,2013-01-25 00:40:00,
2013-01-24 19:46:00,61.3,50.3,30.24,NNW,338,0.0,0.0,67,0.00,,---,0.00,VWS V14.00,2013-01-25 00:46:00,
2013-01-24 19:51:00,61.2,50.1,30.24,NNW,338,0.0,0.0,67,0.00,,---,0.00,VWS V14.00,2013-01-25 00:51:00,
2013-01-24 19:56:00,60.8,49.8,30.24,NNW,338,0.0,0.0,67,0.00,,---,0.00,VWS V14.00,2013-01-25 00:56:00,
2013-01-24 20:02:00,60.8,49.8,30.24,NNW,338,0.0,0.0,67,0.00,,---,0.00,VWS V14.00,2013-01-25 01:02:00,
2013-01-24 20:07:00,60.4,50.2,30.24,NNW,338,0.0,0.0,69,0.00,,---,0.00,VWS V14.00,2013-01-25 01:07:00,
2013-01-24 20:12:00,60.1,49.9,30.24,NNW,338,0.0,0.0,69,0.00,,---,0.00,VWS V14.00,2013-01-25 01:12:00,
2013-01-24 20:17:00,60.1,50.3,30.24,NNW,338,0.0,0.0,70,0.00,,---,0.00,VWS V14.00,2013-01-25 01:17:00,
2013-01-24 20:22:00,60.1,49.9,30.24,NNW,338,0.0,0.0,69,0.00,,---,0.00,VWS V14.00,2013-01-25 01:22:00,
2013-01-24 20:27:00,59.7,49.5,30.24,NNW,338,0.0,0.0,69,0.00,,---,0.00,VWS V14.00,2013-01-25 01:27:00,
2013-01-24 20:32:00,59.5,49.8,30.24,NNW,338,0.0,0.0,70,0.00,,---,0.00,VWS V14.00,2013-01-25 01:32:00,
2013-01-24 20:37:00,59.4,50.0,30.24,NNW,338,0.0,0.0,71,0.00,,---,0.00,VWS V14.00,2013-01-25 01:37:00,
2013-01-24 20:42:00,59.0,50.0,30.24,NNW,338,0.0,0.0,72,0.00,,---,0.00,VWS V14.00,2013-01-25 01:42:00,
2013-01-24 20:47:00,58.6,50.0,30.24,NNW,338,0.0,0.0,73,0.00,,---,0.00,VWS V14.00,2013-01-25 01:47:00,
2013-01-24 20:52:00,58.6,50.4,30.24,NNW,338,0.0,0.0,74,0.00,,---,0.00,VWS V14.00,2013-01-25 01:52:00,
2013-01-24 20:57:00,58.8,50.2,30.24,NNW,338,0.0,0.0,73,0.00,,---,0.00,VWS V14.00,2013-01-25 01:57:00,
2013-01-24 21:02:00,58.6,50.0,30.24,NNW,338,0.0,0.0,73,0.00,,---,0.00,VWS V14.00,2013-01-25 02:02:00,
2013-01-24 21:07:00,58.6,50.0,30.24,NNW,338,0.0,0.0,73,0.00,,---,0.00,VWS V14.00,2013-01-25 02:07:00,
2013-01-24 21:12:00,58.3,50.0,30.24,NNW,338,0.0,0.0,74,0.00,,---,0.00,VWS V14.00,2013-01-25 02:12:00,
2013-01-24 21:17:00,58.1,50.2,30.24,NNW,338,0.0,0.0,75,0.00,,---,0.00,VWS V14.00,2013-01-25 02:17:00,
2013-01-24 21:23:00,58.1,50.2,30.24,NNW,338,0.0,0.0,75,0.00,,---,0.00,VWS V14.00,2013-01-25 02:23:00,
2013-01-24 21:28:00,57.9,50.4,30.24,NNW,338,0.0,0.0,76,0.00,,---,0.00,VWS V14.00,2013-01-25 02:28:00,
2013-01-24 21:33:00,57.9,50.8,30.24,NNW,338,0.0,0.0,77,0.00,,---,0.00,VWS V14.00,2013-01-25 02:33:00,
2013-01-24 21:39:00,57.9,50.4,30.24,NNW,338,0.0,0.0,76,0.00,,---,0.00,VWS V14.00,2013-01-25 02:39:00,
2013-01-24 21:44:00,57.6,50.4,30.24,NNW,338,0.0,0.0,77,0.00,,---,0.00,VWS V14.00,2013-01-25 02:44:00,
2013-01-24 21:49:00,57.6,50.8,30.24,NNW,338,0.0,0.0,78,0.00,,---,0.00,VWS V14.00,2013-01-25 02:49:00,
2013-01-24 21:54:00,57.6,50.4,30.24,NNW,338,0.0,0.0,77,0.00,,---,0.00,VWS V14.00,2013-01-25 02:54:00,
2013-01-24 22:00:00,57.6,50.4,30.24,NNW,338,0.0,0.0,77,0.00,,---,0.00,VWS V14.00,2013-01-25 03:00:00,
2013-01-24 22:05:00,57.6,50.1,30.24,NNW,338,0.0,0.0,76,0.00,,---,0.00,VWS V14.00,2013-01-25 03:05:00,
2013-01-24 22:10:00,57.6,49.7,30.24,NNW,338,0.0,0.0,75,0.00,,---,0.00,VWS V14.00,2013-01-25 03:10:00,
2013-01-24 22:15:00,57.4,49.5,30.24,North,0,0.0,0.0,75,0.00,,---,0.00,VWS V14.00,2013-01-25 03:15:00,
2013-01-24 22:20:00,57.2,49.4,30.24,North,0,0.0,0.0,75,0.00,,---,0.00,VWS V14.00,2013-01-25 03:20:00,
2013-01-24 22:25:00,57.2,49.0,30.24,North,0,0.0,0.0,74,0.00,,---,0.00,VWS V14.00,2013-01-25 03:25:00,
2013-01-24 22:30:00,57.0,49.2,30.24,North,0,0.0,0.0,75,0.00,,---,0.00,VWS V14.00,2013-01-25 03:30:00,
2013-01-24 22:35:00,56.7,48.8,30.24,North,0,0.0,0.0,75,0.00,,---,0.00,VWS V14.00,2013-01-25 03:35:00,
2013-01-24 22:40:00,56.7,49.2,30.24,North,0,0.0,0.0,76,0.00,,---,0.00,VWS V14.00,2013-01-25 03:40:00,
2013-01-24 22:45:00,56.7,48.8,30.24,North,0,0.0,0.0,75,0.00,,---,0.00,VWS V14.00,2013-01-25 03:45:00,
2013-01-24 22:51:00,56.7,48.5,30.24,North,0,0.0,0.0,74,0.00,,---,0.00,VWS V14.00,2013-01-25 03:51:00,
2013-01-24 22:56:00,56.1,49.0,30.24,North,0,0.0,0.0,77,0.00,,---,0.00,VWS V14.00,2013-01-25 03:56:00,
2013-01-24 23:01:00,55.9,48.8,30.24,North,0,0.0,0.0,77,0.00,,---,0.00,VWS V14.00,2013-01-25 04:01:00,
2013-01-24 23:06:00,55.9,49.2,30.24,North,0,0.0,0.0,78,0.00,,---,0.00,VWS V14.00,2013-01-25 04:06:00,
2013-01-24 23:11:00,55.9,48.5,30.24,North,0,0.0,0.0,76,0.00,,---,0.00,VWS V14.00,2013-01-25 04:11:00,
2013-01-24 23:16:00,55.9,48.5,30.24,North,0,0.0,0.0,76,0.00,,---,0.00,VWS V14.00,2013-01-25 04:16:00,
2013-01-24 23:21:00,55.8,48.7,30.24,North,0,0.0,0.0,77,0.00,,---,0.00,VWS V14.00,2013-01-25 04:21:00,
2013-01-24 23:26:00,55.8,48.7,30.24,North,0,0.0,0.0,77,0.00,,---,0.00,VWS V14.00,2013-01-25 04:26:00,
2013-01-24 23:31:00,55.6,48.8,30.24,North,0,0.0,0.0,78,0.00,,---,0.00,VWS V14.00,2013-01-25 04:31:00,
2013-01-24 23:36:00,55.6,48.5,30.24,North,0,0.0,0.0,77,0.00,,---,0.00,VWS V14.00,2013-01-25 04:36:00,
2013-01-24 23:41:00,55.4,48.7,30.24,North,0,0.0,0.0,78,0.00,,---,0.00,VWS V14.00,2013-01-25 04:41:00,
2013-01-24 23:46:00,55.2,48.8,30.24,North,0,0.0,0.0,79,0.00,,---,0.00,VWS V14.00,2013-01-25 04:46:00,
2013-01-24 23:51:00,55.2,48.5,30.24,North,0,0.0,0.0,78,0.00,,---,0.00,VWS V14.00,2013-01-25 04:51:00,
2013-01-24 23:57:00,55.2,48.8,30.24,North,0,0.0,0.0,79,0.00,,---,0.00,VWS V14.00,2013-01-25 04:57:00,